ニート彗星

303P/NEAT (2026)

English version
Home page
Updated on November 30, 2024

---------------------------------------------------------------------

・ プロフィール

・ 軌道要素

Epoch 2026 Feb. 9.0 TT = JDT 2461080.5
T 2026 Feb. 19.92306 TT                                 MPCW
q   2.4682187            (2000.0)            P               Q
n   0.08716413     Peri.  357.07089     +0.96590358     +0.25763402
a   5.0378378      Node   347.90646     -0.23498593     +0.83088873
e   0.5100639      Incl.    7.01651     -0.10868248     +0.49320241
P  11.3
From 223 observations 2003 Oct. 17-2014 Nov. 10, mean residual 0".5.

・ 光度変化

        m1 = 13.0 + 5 logΔ + 10.0 log r

---------------------------------------------------------------------

軌道要素はM.P.E.C. 2015-A10に掲載されたものです。
光度グラフはComet for Windowsで作成したものです。

---------------------------------------------------------------------

Copyright(C) Seiichi Yoshida (comet@aerith.net). All rights reserved.